Regional Weather Roundup
Issued by NWS

Home | Current Version | Previous Version | Graphics & Text | Print | Product List | Glossary On
Versions: 1 2 3 4 5 6 7 8 9 10 11 12 13 14 15 16 17 18 19 20 21 22 23 24 25 26 27 28 29 30 31 32 33 34 35 36 37 38 39 40 41 42 43 44 45 46 47 48 49 50
782
ASUS43 KBIS 081610
RWRND

NORTH DAKOTA REGIONAL WEATHER ROUNDUP
NATIONAL WEATHER SERVICE BISMARCK ND
1000 AM CST MON FEB 08 2016

NOTE: "FAIR" INDICATES FEW OR NO CLOUDS BELOW 12,000 FEET WITH NO
SIGNIFICANT WEATHER AND/OR OBSTRUCTIONS TO VISIBILITY.


NDZ001>003-009>011-017-081700-
NORTHWEST NORTH DAKOTA

CITY           SKY/WX    TMP DP  RH WIND       PRES   REMARKS
WILLISTON      CLOUDY    26  16  65 NW10      30.37S WCI  16
MINOT          CLOUDY    26  13  57 W21       30.28S WCI  12
MINOT AFB      CLOUDY    24  16  71 NW18      30.28R WCI  10
$$

NDZ018>021-031>035-040>046-081700-
SOUTHWEST NORTH DAKOTA

CITY           SKY/WX    TMP DP  RH WIND       PRES   REMARKS
BISMARCK       CLOUDY    30  17  58 NW16G26   30.29S WCI  19
DICKINSON      CLOUDY    23  15  71 NW20G25   30.30R WCI   8
GARRISON         N/A     24  18  77 NW18      30.29R WCI  10
HETTINGER ARPT CLOUDY    25  15  66 NW18      30.33F WCI  11
$$

NDZ004>008-012>016-024-026-027-054-081700-
NORTHEAST NORTH DAKOTA

CITY           SKY/WX    TMP DP  RH WIND       PRES   REMARKS
GRAND FORKS    LGT SNOW  14   9  80 N26G40    30.20R VSB 3/4 WCI  -6
GRND FRKS AFB  LGT SNOW  14   7  73 N28G35    30.19S VSB 3/4 WCI  -6
DEVILS LAKE    FLURRIES  16  10  77 N21       30.22R WCI  -1
$$

NDZ022-023-025-028>030-036>039-047>053-081700-
SOUTHEAST NORTH DAKOTA

CITY           SKY/WX    TMP DP  RH WIND       PRES   REMARKS
FARGO          LGT SNOW  14   8  77 N23       30.18R WCI  -5
JAMESTOWN      CLOUDY    20  10  65 N30G37    30.19R WCI   1
$$





USA.gov is the U.S. government's official web portal to all federal, state and local government web resources and services.